• In Kazakhstan
  • List of Countries
  • For 7 days
  • Water Temperature
  • Weather Map
  • News
  • Weather Widgets
  • user-avatar
    Login

    Hourly Weather Lanciano

    Today, 17 November, Sunday

    Time Temperature Precipitation Wind Pressure Humidity
    00:00 +12°C° 0 mm 3 mps 727 mmHg 78%
    01:00 +12°C° 0 mm 4 mps 726 mmHg 74%
    02:00 +12°C° 0 mm 4 mps 726 mmHg 74%
    03:00 +12°C° 0 mm 4 mps 725 mmHg 74%
    04:00 +12°C° 0 mm 5 mps 725 mmHg 74%
    05:00 +11°C° 0 mm 6 mps 725 mmHg 75%
    06:00 +11°C° 0 mm 6 mps 725 mmHg 75%
    07:00 +12°C° 0 mm 7 mps 724 mmHg 79%
    08:00 +14°C° 1.1 mm 7 mps 725 mmHg 77%
    09:00 +15°C° 1.1 mm 7 mps 725 mmHg 75%
    10:00 +16°C° 1.1 mm 7 mps 726 mmHg 74%
    11:00 +15°C° 1 mm 6 mps 726 mmHg 72%
    12:00 +15°C° 1 mm 5 mps 726 mmHg 71%
    13:00 +14°C° 1 mm 5 mps 726 mmHg 70%
    14:00 +13°C° 0.2 mm 4 mps 726 mmHg 72%
    15:00 +13°C° 0.2 mm 4 mps 726 mmHg 73%
    16:00 +13°C° 0.2 mm 4 mps 726 mmHg 75%
    17:00 +12°C° 0.1 mm 4 mps 727 mmHg 77%
    18:00 +11°C° 0.1 mm 4 mps 727 mmHg 78%
    19:00 +11°C° 0.1 mm 4 mps 727 mmHg 80%
    20:00 +11°C° 0 mm 3 mps 728 mmHg 79%
    21:00 +11°C° 0 mm 3 mps 728 mmHg 78%
    22:00 +10°C° 0 mm 2 mps 728 mmHg 77%
    23:00 +10°C° 0 mm 3 mps 729 mmHg 79%

    Tomorrow, 18 November, Monday

    Time Temperature Precipitation Wind Pressure Humidity
    00:00 +10°C° 0 mm 3 mps 729 mmHg 80%
    01:00 +10°C° 0 mm 4 mps 729 mmHg 81%
    02:00 +9°C° 0 mm 3 mps 729 mmHg 81%
    03:00 +9°C° 0 mm 3 mps 729 mmHg 81%
    04:00 +8°C° 0 mm 3 mps 730 mmHg 81%
    05:00 +8°C° 0 mm 3 mps 730 mmHg 78%
    06:00 +8°C° 0 mm 3 mps 731 mmHg 76%
    07:00 +7°C° 0 mm 3 mps 731 mmHg 74%
    08:00 +9°C° 0 mm 3 mps 732 mmHg 69%
    09:00 +12°C° 0 mm 2 mps 732 mmHg 64%
    10:00 +13°C° 0 mm 2 mps 733 mmHg 59%
    11:00 +13°C° 0 mm 3 mps 733 mmHg 57%
    12:00 +14°C° 0 mm 3 mps 733 mmHg 56%
    13:00 +14°C° 0 mm 3 mps 733 mmHg 54%
    14:00 +14°C° 0 mm 3 mps 733 mmHg 58%
    15:00 +13°C° 0 mm 3 mps 733 mmHg 61%
    16:00 +13°C° 0 mm 3 mps 733 mmHg 65%
    17:00 +12°C° 0 mm 3 mps 733 mmHg 67%
    18:00 +11°C° 0 mm 4 mps 733 mmHg 70%
    19:00 +10°C° 0 mm 4 mps 733 mmHg 73%
    20:00 +10°C° 0 mm 4 mps 733 mmHg 73%
    21:00 +10°C° 0 mm 4 mps 733 mmHg 73%
    22:00 +10°C° 0 mm 4 mps 733 mmHg 74%
    23:00 +10°C° 0 mm 4 mps 733 mmHg 74%

    Day after tomorrow, 19 November, Tuesday

    Time Temperature Precipitation Wind Pressure Humidity
    00:00 +11°C° 0 mm 4 mps 733 mmHg 74%
    01:00 +11°C° 0 mm 4 mps 733 mmHg 74%
    02:00 +11°C° 0 mm 4 mps 733 mmHg 74%
    03:00 +11°C° 0 mm 4 mps 732 mmHg 74%
    04:00 +11°C° 0 mm 4 mps 732 mmHg 74%
    05:00 +11°C° 0 mm 4 mps 732 mmHg 75%
    06:00 +11°C° 0 mm 4 mps 732 mmHg 76%
    07:00 +11°C° 0 mm 4 mps 732 mmHg 77%
    08:00 +12°C° 0 mm 4 mps 732 mmHg 73%
    09:00 +13°C° 0 mm 4 mps 733 mmHg 69%
    10:00 +14°C° 0 mm 4 mps 733 mmHg 64%
    11:00 +14°C° 0.1 mm 4 mps 733 mmHg 64%
    12:00 +14°C° 0.1 mm 4 mps 733 mmHg 63%
    13:00 +15°C° 0.1 mm 4 mps 732 mmHg 62%
    14:00 +14°C° 0.2 mm 3 mps 732 mmHg 66%
    15:00 +13°C° 0.2 mm 3 mps 732 mmHg 70%
    16:00 +13°C° 0.2 mm 2 mps 732 mmHg 75%
    17:00 +13°C° 0 mm 2 mps 732 mmHg 75%
    18:00 +12°C° 0 mm 1 mps 732 mmHg 75%
    19:00 +11°C° 0 mm 1 mps 732 mmHg 75%
    20:00 +11°C° 0 mm 1 mps 732 mmHg 76%
    21:00 +11°C° 0 mm 1 mps 733 mmHg 76%
    22:00 +11°C° 0 mm 1 mps 733 mmHg 76%
    23:00 +10°C° 0 mm 2 mps 733 mmHg 76%

    20 November, Wednesday

    Time Temperature Precipitation Wind Pressure Humidity
    00:00 +10°C° 0 mm 2 mps 732 mmHg 75%
    01:00 +10°C° 0 mm 2 mps 732 mmHg 74%
    02:00 +10°C° 0 mm 2 mps 732 mmHg 74%
    03:00 +10°C° 0 mm 3 mps 732 mmHg 75%
    04:00 +9°C° 0 mm 3 mps 732 mmHg 75%
    05:00 +9°C° 0 mm 3 mps 732 mmHg 76%
    06:00 +9°C° 0 mm 3 mps 732 mmHg 77%
    07:00 +9°C° 0 mm 3 mps 732 mmHg 77%
    08:00 +10°C° 0 mm 3 mps 733 mmHg 73%
    09:00 +12°C° 0 mm 3 mps 733 mmHg 69%
    10:00 +14°C° 0 mm 3 mps 733 mmHg 64%
    11:00 +14°C° 0 mm 3 mps 733 mmHg 64%
    12:00 +14°C° 0 mm 3 mps 733 mmHg 64%
    13:00 +16°C° 0 mm 3 mps 733 mmHg 63%
    14:00 +14°C° 0 mm 3 mps 733 mmHg 69%
    15:00 +14°C° 0 mm 2 mps 733 mmHg 75%
    16:00 +14°C° 0 mm 2 mps 733 mmHg 81%
    17:00 +13°C° 0 mm 2 mps 733 mmHg 84%
    18:00 +12°C° 0 mm 1 mps 733 mmHg 86%
    19:00 +11°C° 0 mm 1 mps 733 mmHg 89%
    20:00 +11°C° 0 mm 1 mps 733 mmHg 88%
    21:00 +11°C° 0 mm 1 mps 734 mmHg 86%
    22:00 +10°C° 0 mm 2 mps 734 mmHg 85%
    23:00 +9°C° 0.1 mm 2 mps 734 mmHg 83%

    21 November, Thursday

    Time Temperature Precipitation Wind Pressure Humidity
    00:00 +9°C° 0.1 mm 2 mps 734 mmHg 81%
    01:00 +9°C° 0.1 mm 2 mps 734 mmHg 79%
    02:00 +10°C° 0 mm 1 mps 733 mmHg 78%
    03:00 +10°C° 0 mm 1 mps 733 mmHg 77%
    04:00 +10°C° 0 mm 1 mps 733 mmHg 77%
    05:00 +10°C° 0 mm 1 mps 733 mmHg 77%
    06:00 +10°C° 0 mm 1 mps 733 mmHg 77%
    07:00 +10°C° 0 mm 1 mps 733 mmHg 77%
    08:00 +11°C° 0 mm 1 mps 733 mmHg 73%
    09:00 +12°C° 0 mm 1 mps 734 mmHg 69%
    10:00 +14°C° 0 mm 1 mps 734 mmHg 64%
    11:00 +14°C° 0 mm 1 mps 734 mmHg 61%
    12:00 +15°C° 0 mm 1 mps 734 mmHg 57%
    13:00 +16°C° 0 mm 1 mps 733 mmHg 54%
    14:00 +15°C° 0 mm 1 mps 733 mmHg 59%
    15:00 +14°C° 0 mm 1 mps 733 mmHg 65%
    16:00 +13°C° 0 mm 1 mps 733 mmHg 71%
    17:00 +12°C° 0 mm 1 mps 734 mmHg 74%
    18:00 +11°C° 0 mm 1 mps 734 mmHg 77%
    19:00 +11°C° 0 mm 1 mps 734 mmHg 79%
    20:00 +10°C° 0 mm 1 mps 734 mmHg 78%
    21:00 +10°C° 0 mm 1 mps 734 mmHg 76%
    22:00 +9°C° 0 mm 2 mps 735 mmHg 75%
    23:00 +9°C° 0 mm 2 mps 734 mmHg 74%

    22 November, Friday

    Time Temperature Precipitation Wind Pressure Humidity
    00:00 +9°C° 0 mm 2 mps 734 mmHg 73%
    01:00 +9°C° 0 mm 2 mps 734 mmHg 72%
    02:00 +10°C° 0 mm 1 mps 734 mmHg 71%
    03:00 +10°C° 0 mm 1 mps 734 mmHg 71%
    04:00 +10°C° 0 mm 1 mps 734 mmHg 70%
    05:00 +9°C° 0 mm 1 mps 734 mmHg 70%
    06:00 +9°C° 0 mm 1 mps 734 mmHg 69%
    07:00 +9°C° 0 mm 1 mps 734 mmHg 69%
    08:00 +11°C° 0 mm 1 mps 735 mmHg 64%
    09:00 +12°C° 0 mm 1 mps 735 mmHg 59%
    10:00 +14°C° 0 mm 1 mps 735 mmHg 54%
    11:00 +15°C° 0 mm 1 mps 735 mmHg 53%
    12:00 +16°C° 0 mm 2 mps 735 mmHg 52%
    13:00 +16°C° 0 mm 2 mps 734 mmHg 51%
    14:00 +16°C° 0 mm 2 mps 734 mmHg 56%
    15:00 +15°C° 0 mm 2 mps 734 mmHg 61%
    16:00 +13°C° 0 mm 3 mps 734 mmHg 66%
    17:00 +13°C° 0 mm 2 mps 734 mmHg 69%
    18:00 +13°C° 0 mm 2 mps 734 mmHg 71%
    19:00 +12°C° 0 mm 2 mps 734 mmHg 73%
    20:00 +12°C° 0 mm 2 mps 734 mmHg 72%
    21:00 +12°C° 0 mm 2 mps 734 mmHg 72%
    22:00 +12°C° 0 mm 2 mps 734 mmHg 71%
    23:00 +10°C° 0 mm 2 mps 734 mmHg 69%
    Show more